This is the latest recevied weather packets stored in our database for station/object KK7RJD. If no packets are shown the sender has not sent any weather packets the latest 10 day(s).
| Time | Temp. | Humidity | Pressure | Rain* | Wind** | Luminosity | Snow |
|---|---|---|---|---|---|---|---|
| 1778041036 | 1.67° C | 69% | 1018.6 hPa | 0 mm | - | 0 W/m² | - |
| 1778040733 | 1.67° C | 69% | 1018.7 hPa | 0 mm | - | 0 W/m² | - |
| 1778040430 | 1.67° C | 69% | 1018.6 hPa | 0 mm | - | 0 W/m² | - |
| 1778040127 | 1.67° C | 69% | 1018.6 hPa | 0 mm | - | 0 W/m² | - |
| 1778039824 | 1.67° C | 70% | 1018.6 hPa | 0 mm | - | 0 W/m² | - |
| 1778039521 | 1.67° C | 69% | 1018.4 hPa | 0 mm | - | 0 W/m² | - |
| 1778039217 | 1.67° C | 69% | 1018.4 hPa | 0 mm | - | 0 W/m² | - |
| 1778038915 | 1.67° C | 69% | 1018.4 hPa | 0 mm | - | 0 W/m² | - |
| 1778038612 | 1.67° C | 69% | 1018.3 hPa | 0 mm | - | 0 W/m² | - |
| 1778038309 | 2.22° C | 68% | 1018.4 hPa | 0 mm | - | 0 W/m² | - |
| 1778038006 | 2.22° C | 65% | 1018.3 hPa | 0 mm | - | 0 W/m² | - |
| 1778037703 | 2.22° C | 63% | 1018.4 hPa | 0 mm | - | 0 W/m² | - |
| 1778037400 | 2.78° C | 62% | 1018.3 hPa | 0 mm | - | 0 W/m² | - |
| 1778037097 | 2.78° C | 60% | 1018.2 hPa | 0 mm | - | 0 W/m² | - |
| 1778036795 | 3.33° C | 59% | 1018.2 hPa | 0 mm | - | 0 W/m² | - |
| 1778036492 | 3.33° C | 56% | 1018.1 hPa | 0 mm | - | 0 W/m² | - |
| 1778036189 | 3.33° C | 55% | 1017.9 hPa | 0 mm | - | 0 W/m² | - |
| 1778035885 | 3.89° C | 54% | 1017.8 hPa | 0 mm | - | 0 W/m² | - |
| 1778035583 | 3.89° C | 53% | 1017.7 hPa | 0 mm | - | 0 W/m² | - |
| 1778035278 | 3.89° C | 54% | 1017.6 hPa | 0 mm | - | 0 W/m² | - |
| 1778034975 | 4.44° C | 49% | 1017.5 hPa | 0 mm | - | 1 W/m² | - |
| 1778034672 | 5° C | 45% | 1017.5 hPa | 0 mm | - | 1 W/m² | - |
| 1778034370 | 5° C | 40% | 1017.4 hPa | 0 mm | - | 2 W/m² | - |
| 1778034067 | 5° C | 40% | 1017.1 hPa | 0 mm | - | 4 W/m² | - |
| 1778033765 | 5° C | 41% | 1017.1 hPa | 0 mm | - | 6 W/m² | - |
* Rain latest hour (hover to see other rain measurements)
** Current wind speed in m/s (hover to see current wind gust speed)